Regional Weather Roundup
Issued by NWS Charleston, SC

Current Version | Previous Version | Graphics & Text | Print | Product List | Glossary On
Versions: 1 2 3 4 5 6 7 8 9 10 11 12 13 14 15 16 17 18 19 20 21 22 23 24 25 26 27 28 29 30 31 32 33 34 35 36 37 38 39 40 41 42 43 44 45 46 47 48 49 50
000 ASUS42 KCHS 201727 RWRCHS REGIONAL WEATHER ROUNDUP NATIONAL WEATHER SERVICE CHARLESTON SC 1200 PM EST MON NOV 20 2017 NOTE: "FAIR" INDICATES FEW OR NO CLOUDS BELOW 12,000 FEET WITH NO SIGNIFICANT WEATHER AND/OR OBSTRUCTIONS TO VISIBILITY. NOT ALL STATIONS ARE QUALITY CONTROLLED. USE DATA WITH CAUTION... ESPECIALLY DEWPOINT OBSERVATIONS. SCZ027-030-031-034>040-042>050-201800- ...SOUTHEAST SOUTH CAROLINA... CITY SKY/WX TMP DP RH WIND PRES REMARKS N CHARLESTON MOSUNNY 58 31 35 VRB6 30.26F WATERFRONT PRK NOT AVBL JOHNS ISLAND FAIR 59 32 36 VRB5 30.26F PINOPOLIS N/A 50 36 57 VRB2 30.20F MONCKS CORNER FAIR 55 32 41 N5 30.25F SUMMERVILLE FAIR 55 28 35 NE6 30.27F BEAUFORT MCAS MOSUNNY 57 34 41 E7 30.27F BEAUFORT ARPT FAIR 57 34 41 NE6 30.25F HILTON HEAD IS NOT AVBL WALTERBORO SUNNY 55 32 41 NE5 30.27F ALLENDALE FAIR 57 30 35 VRB5 30.25F ...SOUTHERN MIDLANDS AND PEE DEE... CITY SKY/WX TMP DP RH WIND PRES REMARKS GEORGETOWN FAIR 55 32 41 E6 30.27F KINGSTREE FAIR 55 27 33 CALM 30.26F ORANGEBURG SUNNY 55 29 36 E6 30.27F BARNWELL N/A 57 30 35 NE7 30.25F AIKEN FAIR 54 28 37 NE3 30.28F MANNING FAIR 55 12 18 MISG 30.26F COLUMBIA MOSUNNY 56 30 37 VRB3 30.27F SUMTER SUNNY 56 27 32 NE6 30.25F FLORENCE SUNNY 56 26 31 VRB6 30.28F MYRTLE BEACH SUNNY 56 29 35 N9 30.27F N MYRTLE BEACH SUNNY 57 29 34 N9 30.26F $$ GAZ063-065-086>088-099>101-113>116-118-119-134>141-150-201800- ...SOUTHEAST GEORGIA... CITY SKY/WX TMP DP RH WIND PRES REMARKS SAVANNAH ARPT PTSUNNY 62 32 32 E8 30.26F HUNTER AAF SUNNY 60 33 36 E9 30.23F FORT STEWART SUNNY 61 36 39 E8 30.23F STATESBORO SUNNY 60 24 25 E5 30.25F SYLVANIA SUNNY 58 33 37 E5 30.26F CLAXTON FAIR 61 33 35 E3 30.25F ...CSRA...CENTRAL AND FAR SOUTHEAST GEORGIA... CITY SKY/WX TMP DP RH WIND PRES REMARKS THOMSON SUNNY 54 28 36 SE3 30.30F AUGUSTA-BUSH SUNNY 56 31 38 NE6 30.26F AUGUSTA-DANIEL SUNNY 55 29 36 NE5 30.27F SWAINSBORO FAIR 57 32 38 CALM 30.24F VIDALIA SUNNY 61 36 39 E9 30.24F EASTMAN FAIR 60 18 19 CALM 30.26F HAZLEHURST FAIR 62 17 18 CALM 30.22F ALMA SUNNY 62 37 39 VRB6 30.23F WAYCROSS SUNNY 64 42 46 E9 30.21F JESUP FAIR 64 45 48 E6 30.23F BAXLEY FAIR 59 34 38 SE6 30.22F BRUNSWICK SUNNY 64 46 52 NE13G21 30.23F SAINT SIMONS SUNNY 67 50 54 NE13 30.23S $$ SCZ027-028-034-036>038-045-046-048>050-GAZ119-141-201800- ...LAKE AND SUPPLEMENTAL COASTAL OBSERVATIONS... STATION/POSITION TIME TEMP WIND PRES WAVE SWELL AIR SEA DIR/SP/G HT/PER HT/PER/DIR (UTC) (F) (DEG/KT/KT) (MB) (FT/S) (FT/S/D) WINYAH BAY 1630 52 70/ 6 1025.0S LAKE MURRAY 1650 54 CALM / 3 1024.4F ACE BASIN NERRS 1645 59 60/ 3 1025.0S FORT PULASKI 1700 55 61 60/ 9/ 13 1024.8 SAPELO ISLAND 1700 64 70/ 11 1024.0 $$ ANZ835-935-AMZ111-154-330-350-352-354-370-450-454-472-201800- ...C-MAN AND BUOY OBSERVATIONS... STATION/POSITION TIME TEMP WIND PRES WAVE SWELL AIR SEA DIR/SP/G HT/PER HT/PER/DIR (UTC) (F) (DEG/KT/KT) (MB) (FT/S) (FT/S/D) BUOY 41004 1710 59 74 50/ 12/ 17 1023.6 BUOY 41008 1650 62 68 70/ 14/ 17 1023.2F 4/ 6 FOLLY BEACH CMAN 1700 54 60/ 11/ 13 1025.3F CAPERS NEARSHORE 1708 53 62 50/ 12/ 19 1024.3F FRIPP NEARSHORE 1708 56 62 50/ 12/ 17 1023.0F STATION/POSITION TIME TEMP WIND PRES WAVE SWELL AIR SEA DIR/SP/G HT/PER HT/PER/DIR (UTC) (F) (DEG/KT/KT) (MB) (FT/S) (FT/S/D) 5E ST. MARYS GA 1700 68 N/A 4/ 5 FRYING PAN BUOY 1710 54 69 30/ 14/ 19 1023.8 BUOY 41025 1710 51 67 330/ 14/ 17 1023.9 CAPE LOOKOUT NC 1700 340/ 5/ 7 1024.5F BUOY 41002 1650 65 77 30/ 14/ 17 1021.5F 7/ 7 5/320/ 7 BUOY 41010 NOT AVBL ST AUGUSTINE FL 1700 69 67 70/ 12/ 13 1021.9F $$

USA.gov is the U.S. government's official web portal to all federal, state and local government web resources and services.